RH
21 20 20 32 39 38 40 46 70 91 94 94 95 96 89 94 96 90 92 91 92 91 92 93 94 97 97 95 93 95 94 94
18 19 24 33 39 39 44 46 53 65 91 98 98 96 96 93 88 88 92 93 93 94 94 94 96 95 94 94 95 96 97 95
12 22 35 41 48 60 60 61 62 62 60 81 94 94 96 89 91 92 94 91 94 96 94 94 94 96 95 95 94 96 97 96
23 34 47 44 64 63 62 65 71 71 66 59 86 96 98 98 95 91 85 95 92 92 95 94 94 94 96 95 93 91 94 98
26 33 45 62 63 60 60 61 66 68 74 70 85 94 99 98 95 92 91 93 95 94 94 94 94 96 96 95 93 92 88 94
31 38 49 55 55 56 60 65 65 76 82 88 94 95 96 98 98 95 92 96 95 96 96 97 96 97 95 94 94 92 89 85
33 32 52 60 63 60 58 63 68 74 80 85 89 94 95 96 97 94 92 91 95 96 95 97 96 96 96 95 94 92 92 88
38 39 41 52 60 62 56 64 65 78 84 88 89 90 93 92 92 93 92 92 94 94 95 96 96 94 95 92 93 93 92 92
38 38 39 45 57 63 61 62 67 67 84 88 89 91 96 94 92 93 88 89 88 90 91 91 94 93 92 95 95 94 94 94
41 36 39 39 60 66 63 66 67 72 79 79 83 84 91 92 94 95 91 89 91 93 94 96 97 96 95 96 98 98 97 96
32 36 40 46 58 65 71 67 68 74 76 79 76 84 90 94 96 97 93 92 89 92 95 95 97 97 97 97 97 96 96 96
23 29 33 46 52 60 71 73 74 78 79 82 85 84 87 94 96 97 95 92 91 93 93 95 95 96 95 98 96 95 98 97
15 16 30 35 54 65 71 74 73 78 82 84 84 86 86 92 95 94 95 94 92 94 94 95 94 95 96 97 97 96 98 97
17 20 54 60 63 63 68 72 75 78 80 82 83 84 84 89 93 94 96 97 94 94 94 95 94 95 97 97 95 96 97 94
20 54 60 61 61 64 66 75 78 78 82 84 85 84 84 85 88 91 95 96 95 94 94 94 93 94 94 94 95 96 94 96
41 56 62 59 63 66 69 73 74 74 76 80 83 83 82 82 86 92 94 96 95 95 95 95 94 94 94 96 95 96 96 95
56 56 57 61 63 68 72 75 75 75 77 77 74 79 80 83 87 89 95 96 96 96 97 97 97 97 100 100 98 96 96 96
61 61 62 65 69 68 77 76 74 75 75 75 73 76 79 81 79 89 95 97 96 98 99 99 99 99 100 100 100 98 98 98
62 62 64 66 67 71 74 73 76 76 75 76 77 78 80 82 84 90 93 99 99 99 99 99 99 98 99 99 99 99 99 100
Wind_Speed
9 9 8 9 9 9 8 6 8 7 7 6 4 4 5 4 5 5 7 10 11 10 9 10 10 8 8 8 10 7 7 8
9 9 9 10 9 8 6 6 5 3 3 5 4 7 6 6 7 7 7 9 10 10 8 11 10 11 12 12 8 12 6 7
8 8 8 8 9 9 8 6 4 4 4 4 4 6 6 9 7 7 6 9 10 10 11 10 12 9 11 12 12 7 4 9
8 12 9 9 9 9 7 7 7 7 4 2 3 4 3 3 7 7 9 7 10 11 13 12 12 11 11 13 13 14 9 7
11 10 7 9 8 9 8 7 7 7 9 4 6 6 5 4 6 8 6 7 9 10 12 13 12 9 11 12 11 11 11 11
7 9 12 8 8 7 7 5 5 3 4 6 1 3 3 4 5 8 9 6 10 11 10 11 11 9 11 13 13 13 11 12
12 10 13 8 8 7 8 8 6 7 2 4 2 5 5 6 5 7 6 6 7 10 10 10 10 11 11 11 12 14 12 10
8 10 11 8 9 8 8 7 8 5 2 3 4 5 6 8 8 8 8 7 7 10 11 11 10 11 11 12 13 14 15 13
10 9 9 9 11 9 7 6 6 9 7 6 5 5 3 4 5 7 8 8 9 9 11 11 13 13 12 11 10 11 14 14
9 9 9 11 10 8 7 7 7 6 5 8 7 6 5 6 5 5 7 8 7 9 10 11 11 13 13 13 10 11 11 14
6 8 8 8 9 8 9 8 7 7 8 7 8 10 8 5 4 6 8 8 9 10 9 9 7 8 9 11 10 10 12 9
8 6 8 9 7 8 7 8 8 7 6 7 9 11 12 6 5 5 7 9 11 12 10 10 9 9 11 9 10 10 11 12
7 5 2 7 8 9 8 7 7 6 5 5 8 10 12 10 6 7 6 9 10 11 12 11 11 10 10 10 10 10 11 12
3 6 13 13 8 8 8 6 6 6 6 7 9 10 11 13 10 7 8 7 11 12 11 12 11 11 10 10 10 10 11 11
6 14 11 9 8 10 10 10 8 7 6 6 9 10 12 12 14 9 8 10 12 12 12 12 11 11 11 11 11 11 11 8
13 11 9 10 11 11 10 9 10 10 10 11 11 12 12 14 13 12 9 9 9 12 12 11 11 11 10 12 11 11 11 11
17 15 15 13 13 11 11 12 12 12 10 11 12 12 13 13 14 16 10 11 9 7 10 10 11 8 9 14 12 10 10 10
17 16 15 14 13 13 12 12 12 11 11 12 12 13 15 14 16 16 11 12 8 7 7 7 6 4 1 10 12 6 6 5
13 11 10 10 11 12 12 12 11 12 11 11 12 13 15 15 15 14 15 7 10 8 7 6 7 4 6 11 14 8 8 7
Wind_Direction
189 184 186 124 119 110 114 117 151 167 168 158 166 176 197 180 191 203 188 183 169 164 157 154 157 156 158 161 166 171 177 181
182 191 143 127 114 107 118 130 164 140 137 160 176 199 196 204 210 205 183 170 173 163 157 155 160 168 169 168 166 177 175 169
181 151 129 111 110 94 65 37 7 172 167 169 162 186 201 201 197 192 186 178 179 166 166 166 169 168 167 169 171 171 172 173
111 116 125 114 100 91 70 34 2 341 287 193 95 72 46 148 189 191 211 183 189 177 174 170 168 174 175 179 178 176 180 183
130 129 104 106 103 82 66 34 348 349 307 193 165 174 161 201 177 173 206 182 176 183 181 173 170 178 181 182 183 183 177 185
81 93 118 109 97 97 75 25 301 312 2 44 340 150 144 145 145 171 187 166 180 169 174 172 180 183 182 183 186 188 192 181
137 124 116 110 93 76 64 40 343 287 24 357 31 232 169 156 166 190 200 184 184 177 177 176 183 181 181 184 184 196 195 200
125 111 115 116 109 87 70 31 6 344 31 313 298 293 206 189 187 197 193 191 188 185 184 187 185 186 179 195 199 201 202 204
133 114 102 99 90 90 85 56 46 24 340 300 296 281 247 240 218 204 205 197 190 182 190 192 186 191 191 193 200 203 206 206
133 126 115 95 102 119 116 76 46 25 7 1 321 297 262 259 251 197 208 189 170 171 170 178 177 185 191 193 199 207 210 214
109 101 107 110 123 119 106 97 77 36 6 354 340 321 290 251 256 239 205 184 181 171 166 169 167 172 185 193 205 214 217 218
70 94 118 128 134 120 107 85 71 35 11 345 340 329 311 259 249 252 223 185 180 170 186 177 176 185 201 194 207 210 213 215
38 65 183 176 94 91 90 79 67 35 12 352 337 324 320 291 249 246 253 198 183 181 180 178 177 192 195 198 204 207 211 205
56 29 69 75 77 76 75 69 56 31 11 350 338 330 325 317 278 251 231 217 187 176 182 185 177 191 195 201 206 204 208 203
61 80 72 67 63 58 50 48 32 9 354 349 336 327 326 314 303 266 245 225 183 180 179 192 182 187 202 203 203 205 207 206
66 61 59 48 46 45 41 29 12 357 355 347 333 324 320 317 310 279 246 222 191 180 180 192 189 188 195 199 203 204 202 205
39 31 34 39 34 28 21 10 358 352 348 338 330 321 323 322 312 306 253 217 200 174 181 188 194 195 192 189 191 201 203 202
29 18 21 26 25 18 9 1 345 340 341 334 337 332 320 322 318 318 258 215 170 147 133 131 122 120 259 204 199 197 195 202
20 13 13 22 15 10 357 353 345 338 331 339 333 327 318 315 315 305 300 180 157 141 125 119 113 73 103 117 108 96 83 66